This is the latest recevied weather packets stored in our database for station/object PD2BVG. If no packets are shown the sender has not sent any weather packets the latest 1 day(s).
| Time | Temp. | Humidity | Pressure | Rain* | Wind** | Luminosity | Snow |
|---|---|---|---|---|---|---|---|
| 1777994856 | 14.44° C | 72% | 1010.6 hPa | 0 mm | 3.13 m/s, 338° | 426 W/m² | - |
| 1777994795 | 14.44° C | 72% | 1010.6 hPa | 0 mm | 4.02 m/s, 333° | 420 W/m² | - |
| 1777994733 | 14.44° C | 72% | 1010.6 hPa | 0 mm | 4.47 m/s, 358° | 410 W/m² | - |
| 1777994672 | 14.44° C | 72% | 1010.7 hPa | 0 mm | 4.02 m/s, 0° | 401 W/m² | - |
| 1777994613 | 14.44° C | 72% | 1010.5 hPa | 0 mm | 3.58 m/s, 0° | 480 W/m² | - |
| 1777994554 | 14.44° C | 72% | 1010.7 hPa | 0 mm | 4.02 m/s, 354° | 441 W/m² | - |
| 1777994494 | 14.44° C | 71% | 1010.6 hPa | 0 mm | 4.47 m/s, 326° | 364 W/m² | - |
| 1777994430 | 14.44° C | 72% | 1010.6 hPa | 0 mm | 4.02 m/s, 358° | 320 W/m² | - |
| 1777994370 | 14.44° C | 72% | 1010.7 hPa | 0 mm | 4.47 m/s, 327° | 297 W/m² | - |
| 1777994309 | 14.44° C | 72% | 1010.7 hPa | 0 mm | 4.47 m/s, 350° | 325 W/m² | - |
| 1777994249 | 14.44° C | 71% | 1010.7 hPa | 0 mm | 4.47 m/s, 341° | 417 W/m² | - |
| 1777994190 | 14.44° C | 72% | 1010.7 hPa | 0 mm | 4.47 m/s, 329° | 436 W/m² | - |
| 1777994129 | 14.44° C | 72% | 1010.7 hPa | 0 mm | 4.47 m/s, 344° | 390 W/m² | - |
| 1777994070 | 14.44° C | 72% | 1010.6 hPa | 0 mm | 4.02 m/s, 350° | 441 W/m² | - |
| 1777994009 | 14.44° C | 72% | 1010.7 hPa | 0 mm | 4.02 m/s, 329° | 415 W/m² | - |
| 1777993950 | 14.44° C | 72% | 1010.7 hPa | 0 mm | 4.47 m/s, 358° | 375 W/m² | - |
| 1777993890 | 13.89° C | 72% | 1010.7 hPa | 0 mm | 4.02 m/s, 338° | 389 W/m² | - |
| 1777993829 | 13.89° C | 71% | 1010.7 hPa | 0 mm | 4.02 m/s, 345° | 378 W/m² | - |
| 1777993769 | 13.89° C | 72% | 1010.7 hPa | 0 mm | 4.02 m/s, 357° | 359 W/m² | - |
| 1777993710 | 13.89° C | 72% | 1010.7 hPa | 0 mm | 4.02 m/s, 320° | 357 W/m² | - |
| 1777993649 | 13.89° C | 72% | 1010.6 hPa | 0 mm | 4.92 m/s, 0° | 419 W/m² | - |
| 1777993589 | 13.89° C | 72% | 1010.8 hPa | 0 mm | 5.36 m/s, 347° | 429 W/m² | - |
| 1777993530 | 13.89° C | 72% | 1010.7 hPa | 0 mm | 4.92 m/s, 338° | 408 W/m² | - |
| 1777993470 | 13.89° C | 72% | 1010.7 hPa | 0 mm | 4.02 m/s, 0° | 350 W/m² | - |
| 1777993409 | 13.89° C | 72% | 1010.7 hPa | 0 mm | 4.47 m/s, 333° | 331 W/m² | - |
* Rain latest hour (hover to see other rain measurements)
** Current wind speed in m/s (hover to see current wind gust speed)